Weather observations for the past three days for
Plainview, Hale County Airport
Imperial (Metric)
Date Time (cdt) Wind (mph) Vis. (mi.) Weather Sky Cond. Temperature (ºF) Relative Humidity Wind Chill (°F) Heat Index (°F) Pressure Precipitation (in)
Air Dwpt 6 hour altimeter (in) sea level (mb) 1 hr 3 hr 6 hr
Max. Min.
15 02:35 S 8 10.00 Fair CLR 74.3 55.8 53% 30.1 0.0
15 02:15 S 8 10.00 Fair CLR 70 54.9 59% 30.11 0.0
15 01:55 Calm 10.00 Fair CLR 70.5 54.5 57% 30.11 0.0
15 01:35 SW 5 10.00 Fair CLR 71.2 54.7 56% 30.11 0.0
15 01:15 S 3 10.00 Fair CLR 72 54.3 54% 30.11 0.0
15 00:55 S 5 10.00 Fair CLR 72.3 54.7 93.2 71.8 54% 30.11 0.0
15 00:35 S 3 10.00 Fair CLR 73.2 53.6 50% 30.11 0.0
15 00:15 S 7 10.00 Fair CLR 76.6 53.1 44% 78 30.11 0.0
14 23:55 S 5 10.00 Fair CLR 75.7 52.5 44% 78 30.1 0.0
14 23:35 S 3 10.00 Fair CLR 74.5 52.7 47% 30.1 0.0
14 23:15 S 5 10.00 Fair CLR 76.3 51.3 42% 78 30.1 0.0
14 22:55 S 5 10.00 Fair CLR 77.9 51.1 39% 79 30.1 0.0
14 22:35 S 5 10.00 Fair CLR 77.9 51.8 40% 79 30.1 0.0
14 22:15 S 6 10.00 Fair CLR 76.6 52.5 43% 78 30.1 0.0
14 21:55 S 5 10.00 Fair CLR 77.2 52.9 43% 78 30.1 0.0
14 21:35 S 6 10.00 Fair CLR 80.6 52.7 38% 80 30.1 0.0
14 21:15 S 5 10.00 Fair CLR 81.9 52.9 37% 81 30.09 0.0
14 20:55 S 5 10.00 Fair CLR 84.2 52.7 34% 83 30.09 0.0
14 20:35 S 5 10.00 Fair CLR 88 51.4 29% 85 30.08 0.0
14 20:15 S 8 10.00 Fair CLR 90 49.6 25% 87 30.08 0.0
14 19:55 S 7 10.00 Fair CLR 91.4 49.1 23% 88 30.08 0.0
14 19:35 S 9 10.00 Fair CLR 92.1 49.8 24% 89 30.08 0.0
14 19:15 S 9 10.00 Fair CLR 92.5 50.9 24% 90 30.08 0.0
14 18:55 SW 12 G 17 10.00 Fair CLR 93 50.7 95 88.3 24% 90 30.08 0.0
14 18:35 S 7 10.00 Fair CLR 93.6 50.5 23% 91 30.09 0.0
14 18:15 S 12 10.00 Fair CLR 93.7 52 24% 91 30.09 0.0
14 17:55 SW 14 10.00 Fair CLR 93.4 51.6 24% 91 30.09 0.0
14 17:35 S 12 G 16 10.00 Fair CLR 94.5 52 24% 92 30.09 0.0
14 17:15 S 10 G 17 10.00 Fair CLR 94.1 52.9 25% 92 30.1 0.0
14 16:55 S 10 10.00 Fair CLR 94.3 52 24% 92 30.11 0.0
14 16:35 SW 8 10.00 Fair CLR 93 53.4 26% 91 30.11 0.0
14 16:15 SW 13 G 18 10.00 Fair CLR 93.9 53.4 25% 92 30.12 0.0
14 15:55 S 9 G 18 10.00 Fair CLR 93.7 55.6 28% 92 30.12 0.0
14 15:35 S 9 G 20 10.00 Fair CLR 93 55.2 28% 91 30.13 0.0
14 15:15 SW 6 G 17 10.00 Fair CLR 92.7 55.4 28% 91 30.13 0.0
14 14:55 S 12 G 17 10.00 Fair CLR 92.8 55.8 29% 91 30.14 0.0
14 14:35 S 7 G 16 10.00 Fair CLR 91.9 56.1 30% 90 30.15 0.0
14 14:15 S 7 G 18 10.00 Fair CLR 92.1 56.5 30% 91 30.16 0.0
14 13:55 S 8 G 17 10.00 Fair CLR 91.9 56.3 30% 90 30.16 0.0
14 13:35 S 12 G 17 10.00 Partly Cloudy SCT060 90.7 57.2 32% 89 30.17 0.0
14 13:15 S 10 G 16 10.00 Partly Cloudy SCT060 91.4 58.3 33% 90 30.18 0.0
14 12:55 SW 8 10.00 Fair CLR 89.1 60.3 89.2 67.5 38% 89 30.19 0.0
14 12:35 SW 14 G 17 10.00 Fair CLR 87.8 61.3 41% 88 30.2 0.0
14 12:15 SW 10 10.00 Fair CLR 86.7 61.9 43% 87 30.2 0.0
14 11:55 S 8 10.00 Fair CLR 85.5 62.4 46% 86 30.2 0.0
14 11:35 SW 10 10.00 Fair CLR 84.6 63 48% 85 30.2 0.0
14 11:15 SW 10 G 18 10.00 Fair CLR 83.3 63.1 51% 84 30.2 0.0
14 10:55 SW 13 10.00 Fair CLR 81.3 63.1 54% 83 30.21 0.0
14 10:35 SW 12 G 17 10.00 Fair CLR 80.6 63.3 56% 82 30.21 0.0
14 10:15 SW 10 10.00 Fair CLR 79.2 63.3 58% 81 30.21 0.0
14 09:55 SW 12 10.00 Fair CLR 77.4 63.5 62% 79 30.21 0.0
14 09:35 W 13 10.00 Fair CLR 76.5 63.5 64% 78 30.22 0.0
14 09:15 SW 13 10.00 Fair CLR 75.2 63.3 67% 77 30.22 0.0
14 08:55 SW 15 10.00 Fair CLR 74.3 63 68% 30.22 0.0
14 08:35 SW 13 10.00 Fair CLR 72.9 62.6 70% 30.21 0.0
14 08:15 SW 10 10.00 Fair CLR 71.8 62.2 72% 30.21 0.0
14 07:55 SW 8 10.00 Fair CLR 69.8 61.7 76% 30.21 0.0
14 07:35 SW 5 10.00 Fair CLR 68.4 61.7 79% 30.21 0.0
14 07:15 SW 7 10.00 Fair CLR 67.5 61.5 81% 30.2 0.0
14 06:55 SW 7 10.00 Fair CLR 67.8 61.5 73.4 67.8 80% 30.2 0.0
14 06:35 SW 9 10.00 Fair CLR 68.2 61.5 79% 30.19 0.0
14 06:15 SW 8 10.00 Fair CLR 68.7 61.3 77% 30.18 0.0
14 05:55 SW 7 10.00 Fair CLR 69.4 61.3 76% 30.18 0.0
14 05:35 SW 8 10.00 Fair CLR 70.2 61.3 74% 30.18 0.0
14 05:15 SW 9 10.00 Fair CLR 70.7 61.3 72% 30.18 0.0
14 04:55 SW 10 10.00 Fair CLR 70.9 60.8 71% 30.16 0.0
14 04:35 SW 10 10.00 Fair CLR 71.6 60.1 67% 30.16 0.0
14 04:15 SW 8 10.00 Fair CLR 72.3 59.7 65% 30.16 0.0
14 03:55 SW 9 10.00 Fair CLR 72.9 59.4 63% 30.16 0.0
14 03:35 SW 10 10.00 Fair CLR 73.2 59 61% 30.17 0.0
14 03:15 SW 12 10.00 Fair CLR 72.7 58.5 61% 30.17 0.0
14 02:55 S 10 10.00 Fair CLR 72.7 57.2 58% 30.18 0.0
14 02:35 S 9 10.00 Fair CLR 72.9 55.8 55% 30.18 0.0
14 02:15 S 7 10.00 Fair CLR 70.9 53.2 54% 30.18 0.0
14 01:55 SW 5 10.00 Fair CLR 70.9 52.3 52% 30.18 0.0
14 01:35 SW 6 10.00 Fair CLR 69.6 51.4 53% 30.18 0.0
14 01:15 SW 3 10.00 Fair CLR 70 52.3 54% 30.18 0.0
14 00:55 Calm 10.00 Fair CLR 71.8 51.8 92.1 71.2 49% 30.19 0.0
14 00:35 Calm 10.00 Fair CLR 71.2 52.7 52% 30.19 0.0
14 00:15 S 5 10.00 Fair CLR 71.4 52.3 51% 30.19 0.0
13 23:55 SW 3 10.00 Fair CLR 73.6 51.1 45% 30.18 0.0
13 23:35 SW 5 10.00 Fair CLR 74.5 50.7 43% 30.19 0.0
13 23:15 SW 6 10.00 Fair CLR 75.4 50.9 42% 78 30.19 0.0
13 22:55 S 5 10.00 Fair CLR 75.2 50.4 42% 78 30.19 0.0
13 22:35 S 5 10.00 Fair CLR 76.1 49.6 39% 78 30.18 0.0
13 22:15 S 5 10.00 Fair CLR 78.3 50.4 38% 79 30.18 0.0
13 21:55 S 6 10.00 Fair CLR 80.8 50 34% 80 30.18 0.0
13 21:35 S 7 10.00 Fair CLR 81.7 50 33% 81 30.17 0.0
13 21:15 S 7 10.00 Fair CLR 81.9 50.9 34% 81 30.17 0.0
13 20:55 S 7 10.00 Fair CLR 83.1 50.2 32% 81 30.17 0.0
13 20:35 S 7 10.00 Fair CLR 86 48.9 28% 83 30.16 0.0
13 20:15 S 8 10.00 Fair CLR 87.8 48.7 26% 85 30.15 0.0
13 19:55 S 10 10.00 Fair CLR 89.2 48.2 24% 86 30.15 0.0
13 19:35 S 15 10.00 Fair CLR 90.3 48.6 24% 87 30.15 0.0
13 19:15 S 13 G 16 10.00 Fair CLR 91 48 23% 88 30.15 0.0
13 18:55 S 9 10.00 Fair CLR 92.1 47.5 94.1 89.1 22% 89 30.14 0.0
13 18:35 S 7 10.00 Fair CLR 92.5 47.1 21% 89 30.14 0.0
13 18:15 S 6 7.00 Fair CLR 93.2 46 20% 89 30.15 0.0
13 17:55 SW 9 G 16 10.00 Fair CLR 93 46.6 20% 89 30.15 0.0
13 17:35 SW 9 10.00 Fair CLR 92.3 45.9 20% 89 30.15 0.0
13 17:15 SW 8 10.00 Fair CLR 92.7 46.4 20% 89 30.15 0.0
13 16:55 S 9 G 16 10.00 Fair CLR 93.7 48.2 21% 90 30.16 0.0
13 16:35 SW 8 10.00 Fair CLR 93.4 47.1 20% 90 30.17 0.0
13 16:15 SW 10 G 16 10.00 Fair CLR 92.3 46.8 21% 89 30.17 0.0
13 15:55 S 12 10.00 Fair CLR 93 48.2 22% 90 30.17 0.0
13 15:35 S 10 G 17 10.00 Fair CLR 92.5 47.3 21% 89 30.17 0.0
13 15:15 S 9 10.00 Fair CLR 91.9 48.6 23% 89 30.18 0.0
13 14:55 SW 7 10.00 Fair CLR 93 47.5 21% 89 30.18 0.0
13 14:35 SW 3 G 17 10.00 Fair CLR 92.7 45.1 19% 89 30.18 0.0
13 14:15 SW 5 G 12 10.00 Fair CLR 91.4 48.6 23% 88 30.2 0.0
13 13:55 SW 9 G 18 10.00 Fair CLR 91.6 49.1 23% 88 30.2 0.0
13 13:35 S 6 10.00 Fair CLR 90.9 48.6 23% 88 30.2 0.0
13 13:15 SW 12 G 16 10.00 Fair CLR 89.8 51.1 27% 87 30.2 0.0
13 12:55 SW 7 G 16 10.00 Fair CLR 88.9 51.6 89.8 62.4 28% 86 30.21 0.0
13 12:35 SW 9 10.00 Fair CLR 88.7 52.9 29% 86 30.21 0.0
13 12:15 S 9 10.00 Fair CLR 88.9 53.2 30% 87 30.21 0.0
13 11:55 SW 9 10.00 Fair CLR 87.6 53.2 31% 85 30.22 0.0
13 11:35 SW 10 10.00 Fair CLR 86.5 55.8 35% 85 30.22 0.0
13 11:15 W 8 10.00 Fair CLR 85.6 57.2 38% 85 30.22 0.0
13 10:55 SW 10 10.00 Fair CLR 84.6 57.4 40% 84 30.22 0.0
13 10:35 W 10 10.00 Fair CLR 83.5 57.4 41% 83 30.22 0.0
13 10:15 W 12 10.00 Fair CLR 82.2 57.2 43% 82 30.22 0.0
13 09:55 SW 12 10.00 Fair CLR 81 57.4 45% 81 30.22 0.0
13 09:35 SW 14 10.00 Fair CLR 79.5 57.2 46% 80 30.22 0.0
13 09:15 W 13 10.00 Fair CLR 78.3 56.5 47% 79 30.22 0.0
13 08:55 SW 12 10.00 Fair CLR 76.5 56.3 50% 78 30.22 0.0
13 08:35 SW 9 10.00 Fair CLR 74.1 56.7 55% 30.22 0.0
13 08:15 SW 9 10.00 Fair CLR 70.9 56.7 61% 30.22 0.0
13 07:55 SW 7 10.00 Fair CLR 67.8 57 69% 30.22 0.0
13 07:35 W 5 10.00 Fair CLR 65.5 56.3 72% 30.21 0.0
13 07:15 SW 5 10.00 Fair CLR 62.6 55.4 77% 30.21 0.0
13 06:55 W 3 10.00 Fair CLR 64 55.8 74.3 63.9 75% 30.21 0.0
13 06:35 SW 6 10.00 Fair CLR 65.5 55.8 71% 30.2 0.0
13 06:15 S 8 10.00 Fair CLR 65.8 55.2 69% 30.19 0.0
13 05:55 S 7 10.00 Fair CLR 64.6 54.7 70% 30.18 0.0
13 05:35 SW 5 10.00 Fair CLR 64.9 53.8 67% 30.18 0.0
13 05:15 SW 5 10.00 Fair CLR 65.8 54 66% 30.18 0.0
13 04:55 S 7 10.00 Fair CLR 64.6 53.1 66% 30.18 0.0
13 04:35 S 3 10.00 Fair CLR 65.8 52.7 63% 30.17 0.0
13 04:15 Calm 10.00 Fair CLR 66.6 52.7 61% 30.18 0.0
13 03:55 Calm 10.00 Fair CLR 65.3 52.3 63% 30.18 0.0
13 03:35 S 6 10.00 Fair CLR 68.9 52.3 56% 30.17 0.0
13 03:15 S 5 10.00 Fair CLR 68 52.2 57% 30.17 0.0
13 02:55 Calm 10.00 Fair CLR 69.3 52.2 55% 30.18 0.0
13 02:35 S 5 10.00 Fair CLR 66.9 53.4 62% 30.18 0.0
13 02:15 S 3 10.00 Fair CLR 68 53.4 60% 30.18 0.0
13 01:55 S 5 10.00 Fair CLR 69.8 52.7 55% 30.18 0.0
13 01:35 S 7 10.00 Fair CLR 71.8 52.7 51% 30.18 0.0
13 01:15 S 8 10.00 Fair CLR 73.8 52.9 48% 30.18 0.0
13 00:55 SE 9 10.00 Fair CLR 74.3 52.7 93.4 74.3 47% 30.18 0.0
13 00:35 SE 9 10.00 Fair CLR 75 52.2 45% 78 30.18 0.0
13 00:15 S 9 10.00 Fair CLR 75.4 51.8 44% 78 30.18 0.0
12 23:55 S 9 10.00 Fair CLR 75.7 51.8 43% 78 30.17 0.0
12 23:35 S 7 10.00 Fair CLR 75.7 51.3 42% 78 30.17 0.0
12 23:15 S 8 10.00 Fair CLR 76.1 50.9 41% 78 30.17 0.0
12 22:55 S 7 10.00 Fair CLR 76.5 50.4 40% 78 30.16 0.0
12 22:35 SE 8 10.00 Fair CLR 76.8 50 39% 78 30.16 0.0
12 22:15 SE 8 10.00 Fair CLR 75.7 49.5 40% 78 30.15 0.0
12 21:55 SE 7 10.00 Fair CLR 76.6 49.8 39% 78 30.14 0.0
12 21:35 S 6 10.00 Fair CLR 80.4 49.1 34% 80 30.13 0.0
12 21:15 S 8 10.00 Fair CLR 83.8 48.7 30% 82 30.13 0.0
12 20:55 S 13 G 17 10.00 Partly Cloudy SCT110 86.2 48.9 28% 84 30.13 0.0
12 20:35 S 7 10.00 Fair CLR 87.8 49.1 26% 85 30.12 0.0
12 20:15 S 12 10.00 Fair CLR 89.2 48.7 25% 86 30.12 0.0
12 19:55 S 13 10.00 Fair CLR 90.5 48.4 23% 87 30.11 0.0
12 19:35 S 13 G 16 10.00 Fair CLR 91.6 47.8 22% 88 30.11 0.0
12 19:15 S 12 10.00 Partly Cloudy SCT120 91.9 46.9 21% 88 30.11 0.0
12 18:55 S 9 10.00 Fair CLR 93.2 46.8 95.7 90.9 20% 90 30.11 0.0
12 18:35 S 12 G 16 10.00 Fair CLR 93.6 47.3 20% 90 30.11 0.0
12 18:15 S 10 10.00 Partly Cloudy SCT120 93.2 46 20% 89 30.1 0.0
12 17:55 S 12 10.00 Partly Cloudy SCT110 93.7 46.2 20% 90 30.1 0.0
12 17:35 S 6 10.00 Partly Cloudy SCT110 94.3 46.6 19% 91 30.11 0.0
12 17:15 S 7 G 18 10.00 Partly Cloudy SCT110 94.3 45.7 19% 90 30.11 0.0
12 16:55 S 10 10.00 Mostly Cloudy BKN110 94.8 46.4 19% 91 30.11 0.0
12 16:35 W 12 10.00 Partly Cloudy SCT110 94.3 45.1 18% 90 30.11 0.0
12 16:15 SW 6 G 22 10.00 Mostly Cloudy BKN110 94.8 45.5 18% 91 30.12 0.0
12 15:55 S 10 10.00 Partly Cloudy SCT120 94.3 45.5 19% 90 30.12 0.0
12 15:35 SE 10 G 21 10.00 Partly Cloudy SCT110 94.8 46.2 19% 91 30.12 0.0
12 15:15 S 9 10.00 Partly Cloudy SCT110 91.6 45 20% 88 30.13 0.0
12 14:55 S 12 G 17 10.00 Partly Cloudy SCT110 92.3 44.4 19% 88 30.13 0.0
12 14:35 Calm 10.00 Partly Cloudy SCT110 91.9 44.2 19% 88 30.13 0.0
12 14:15 SW 7 G 17 10.00 Partly Cloudy SCT110 91.9 46.6 21% 88 30.14 0.0
12 13:55 Calm 10.00 Partly Cloudy SCT100 93 46.8 20% 89 30.15 0.0
12 13:35 SE 6 G 17 10.00 Fair CLR 93 47.8 21% 90 30.15 0.0
12 13:15 SW 6 G 12 10.00 Fair CLR 92.8 47.3 21% 89 30.16 0.0
12 12:55 SW 12 G 17 10.00 Fair CLR 93.9 46.8 93.9 62.1 20% 90 30.16 0.0
12 12:35 SW 14 10.00 Fair CLR 93 46.2 20% 89 30.17 0.0
12 12:15 SW 12 10.00 Fair CLR 91.9 45.7 20% 88 30.16 0.0
12 11:55 W 9 G 18 10.00 Fair CLR 91.2 48.4 23% 88 30.16 0.0
12 11:35 W 10 G 17 10.00 Fair CLR 90.1 49.1 24% 87 30.17 0.0
12 11:15 W 16 G 22 10.00 Fair CLR 88.9 51.6 28% 86 30.16 0.0
12 10:55 W 17 G 21 10.00 Fair CLR 87.6 52.7 30% 85 30.16 0.0
12 10:35 W 17 10.00 Fair CLR 86.2 55.4 35% 85 30.16 0.0
12 10:15 W 20 10.00 Fair CLR 84.4 54.9 36% 83 30.16 0.0
12 09:55 W 13 10.00 Fair CLR 82.6 56.8 41% 82 30.16 0.0
12 09:35 W 14 G 17 10.00 Fair CLR 80.8 56.8 44% 81 30.16 0.0
12 09:15 W 14 10.00 Fair CLR 79 56.7 46% 80 30.16 0.0
12 08:55 W 16 10.00 Fair CLR 77.2 56.3 49% 79 30.16 0.0
12 08:35 W 14 10.00 Fair CLR 75 55.6 51% 78 30.16 0.0
12 08:15 W 13 10.00 Fair CLR 72.7 54.3 53% 30.15 0.0
12 07:55 W 10 10.00 Fair CLR 70 53.1 55% 30.15 0.0
12 07:35 SW 9 10.00 Fair CLR 66.7 52.9 61% 30.14 0.0
12 07:15 SW 9 10.00 Fair CLR 64.2 52.7 66% 30.14 0.0
12 06:55 SW 7 10.00 Fair CLR 61.9 52.3 72.7 61.9 71% 30.14 0.0
12 06:35 W 6 10.00 Fair CLR 62.6 52.7 70% 30.14 0.0
12 06:15 W 6 10.00 Fair CLR 62.4 52.7 71% 30.13 0.0
12 05:55 SW 6 10.00 Fair CLR 62.6 52.2 69% 30.12 0.0
12 05:35 SW 5 10.00 Fair CLR 63.9 52.7 67% 30.12 0.0
12 05:15 SW 3 10.00 Fair CLR 63 52.7 69% 30.12 0.0
12 04:55 W 3 10.00 Fair CLR 62.2 52.3 70% 30.13 0.0
12 04:35 SW 3 10.00 Fair CLR 64 52.7 67% 30.12 0.0
12 04:15 SW 5 10.00 Fair CLR 66.2 52.5 62% 30.11 0.0
12 03:55 SW 5 10.00 Fair CLR 67.1 52.2 59% 30.12 0.0
12 03:35 SW 6 10.00 Fair CLR 67.1 52.2 59% 30.12 0.0
12 03:15 SW 6 10.00 Fair CLR 68.7 52 55% 30.12 0.0
12 02:55 SW 7 10.00 Fair CLR 70.7 51.8 51% 30.12 0.0
Date Time (cdt) Wind (mph) Vis. (mi.) Weather Sky Cond. Air Dwpt Max. Min. Relative Humidity Wind Chill (°F) Heat Index (°F) altimeter (in) sea level (mb) 1 hr 3 hr 6 hr
6 hour
Temperature (ºF) Pressure Precipitation (in)